Powrót do katalogu

ONEWEB-0694

AktywnyŁącznośćPO
NORAD 56722·PAYLOAD·🇬🇧 United Kingdom

Wystrzelony May 20, 2023 z Vandenberg Space Force Base

Loading…

Następne Przeloty (najbliższe 24 godziny)

TLE

ŚwieżeSource: CelesTrak SupGP

Epoka: Sep 14, 2026, 21:28 UTC

1 56722C 23068N   26257.89458750 -.00001268  00000+0 -33219-2 0  2574
2 56722  87.9145 210.9528 0001775  91.0004 305.7887 13.16595294    13

Śledź ONEWEB-0694 w czasie rzeczywistym z AllMySat

Download on the App Store